| time (UTC) | temp F | wind direction | speed knots | gust knots | rain 1hr in | rain 24hr in | rain mn in | humidity % | barometer mb |
| 20260503200010 | 47 | 149 | 0.0 | 0.9 | 0.00 | 0.01 | 0.01 | 84 | 1006.5 |
| 20260503194510 | 48 | 148 | 0.0 | 1.7 | 0.00 | 0.01 | 0.01 | 84 | 1006.8 |
| 20260503193010 | 48 | 148 | 0.9 | 5.2 | 0.00 | 0.01 | 0.01 | 84 | 1006.9 |
| 20260503191510 | 48 | 150 | 0.0 | 4.3 | 0.00 | 0.01 | 0.01 | 83 | 1006.8 |
| 20260503190027 | 48 | 148 | 1.7 | 6.1 | 0.00 | 0.01 | 0.01 | 83 | 1006.8 |
| 20260503184510 | 48 | 153 | 2.6 | 7.8 | 0.00 | 0.01 | 0.01 | 83 | 1006.9 |
| 20260503183015 | 48 | 144 | 2.6 | 7.0 | 0.00 | 0.01 | 0.01 | 84 | 1007.0 |
| 20260503181510 | 49 | 136 | 6.1 | 11.3 | 0.00 | 0.01 | 0.01 | 83 | 1006.8 |
| 20260503180012 | 49 | 146 | 7.0 | 10.4 | 0.00 | 0.01 | 0.01 | 82 | 1006.8 |
| 20260503174509 | 50 | 134 | 6.1 | 11.3 | 0.00 | 0.01 | 0.01 | 81 | 1006.7 |
| 20260503173009 | 51 | 147 | 6.1 | 10.4 | 0.00 | 0.01 | 0.01 | 78 | 1006.7 |
| 20260503171514 | 51 | 134 | 4.3 | 9.6 | 0.00 | 0.01 | 0.01 | 76 | 1006.7 |
| 20260503081515 | 55 | 160 | 3.5 | 8.7 | 0.00 | 0.03 | 0.01 | 58 | 1008.9 |
| 20260503071513 | 58 | 26 | 0.0 | 2.6 | 0.00 | 0.03 | 0.01 | 59 | 1009.0 |
| 20260503054509 | 46 | 28 | 2.6 | 5.2 | 0.00 | 0.03 | 0.01 | 84 | 1008.6 |
| 20260503053010 | 45 | 65 | 4.3 | 7.8 | 0.00 | 0.03 | 0.01 | 86 | 1008.6 |
| 20260503051509 | 45 | 16 | 2.6 | 7.0 | 0.00 | 0.03 | 0.01 | 88 | 1008.5 |
| 20260503050012 | 44 | 11 | 1.7 | 4.3 | 0.00 | 0.03 | 0.01 | 90 | 1008.5 |
| 20260503044510 | 44 | 5 | 0.0 | 4.3 | 0.00 | 0.03 | 0.01 | 91 | 1008.4 |
| 20260503043009 | 43 | 32 | 3.5 | 7.8 | 0.00 | 0.03 | 0.01 | 92 | 1008.5 |
| 20260503040009 | 43 | 11 | 1.7 | 3.5 | 0.01 | 0.03 | 0.01 | 94 | 1008.7 |
| 20260503034510 | 43 | 11 | 0.0 | 5.2 | 0.01 | 0.03 | 0.01 | 94 | 1008.6 |
| 20260503033011 | 42 | 11 | 0.9 | 5.2 | 0.01 | 0.03 | 0.01 | 94 | 1008.6 |
| 20260503031509 | 42 | 162 | 0.0 | 0.0 | 0.00 | 0.02 | 0.00 | 94 | 1008.6 |
| 20260503030009 | 42 | 163 | 0.0 | 0.0 | 0.00 | 0.02 | 0.00 | 94 | 1008.6 |
| 20260503024512 | 42 | 162 | 0.0 | 0.0 | 0.00 | 0.02 | 0.00 | 93 | 1008.5 |
| 20260503023009 | 42 | 164 | 0.0 | 1.7 | 0.00 | 0.02 | 0.00 | 93 | 1008.5 |
| 20260503021509 | 42 | 163 | 0.0 | 0.0 | 0.00 | 0.02 | 0.00 | 93 | 1008.5 |
| 20260503020010 | 43 | 164 | 0.0 | 0.0 | 0.00 | 0.02 | 0.00 | 93 | 1008.4 |
| 20260503014510 | 43 | 164 | 0.0 | 0.0 | 0.00 | 0.02 | 0.00 | 92 | 1008.4 |
| 20260503013010 | 43 | 164 | 0.0 | 0.9 | 0.00 | 0.02 | 0.00 | 92 | 1008.4 |
| 20260503011510 | 44 | 164 | 0.0 | 0.0 | 0.00 | 0.02 | 0.00 | 92 | 1008.4 |
| 20260503010013 | 44 | 164 | 0.0 | 0.0 | 0.00 | 0.02 | 0.00 | 91 | 1008.3 |
| 20260503004521 | 44 | 164 | 0.0 | 0.0 | 0.00 | 0.02 | 0.00 | 90 | 1008.3 |
| 20260503003011 | 45 | 164 | 0.0 | 0.0 | 0.00 | 0.02 | 0.00 | 90 | 1008.3 |
| 20260503001510 | 45 | 163 | 0.0 | 0.0 | 0.00 | 0.02 | 0.00 | 90 | 1008.4 |
| 20260503000010 | 46 | 164 | 0.0 | 0.0 | 0.00 | 0.02 | 0.00 | 89 | 1008.4 |
| 20260502234510 | 46 | 164 | 0.0 | 0.0 | 0.00 | 0.02 | 0.00 | 89 | 1008.4 |
| 20260502233012 | 47 | 164 | 0.0 | 0.0 | 0.00 | 0.02 | 0.00 | 88 | 1008.6 |
| 20260502231510 | 47 | 164 | 0.0 | 0.0 | 0.00 | 0.02 | 0.00 | 87 | 1008.8 |
| 20260502230012 | 48 | 164 | 0.0 | 0.0 | 0.00 | 0.02 | 0.00 | 87 | 1008.8 |
| 20260502224509 | 48 | 163 | 0.0 | 1.7 | 0.00 | 0.02 | 0.00 | 87 | 1008.7 |
| 20260502223009 | 49 | 164 | 0.0 | 0.0 | 0.00 | 0.02 | 0.00 | 86 | 1008.7 |
| 20260502221509 | 50 | 164 | 0.0 | 2.6 | 0.00 | 0.02 | 0.00 | 85 | 1008.6 |
| 20260502220010 | 50 | 164 | 0.9 | 4.3 | 0.00 | 0.02 | 0.02 | 85 | 1008.6 |
| 20260502214512 | 51 | 164 | 0.0 | 1.7 | 0.00 | 0.02 | 0.02 | 81 | 1008.8 |
| 20260502213010 | 50 | 165 | 0.0 | 2.6 | 0.00 | 0.02 | 0.02 | 81 | 1008.8 |
| 20260502211519 | 50 | 165 | 0.9 | 3.5 | 0.00 | 0.02 | 0.02 | 83 | 1009.2 |
| 20260502210015 | 50 | 165 | 0.9 | 2.6 | 0.00 | 0.02 | 0.02 | 84 | 1009.4 |
| 20260502204510 | 50 | 164 | 0.9 | 2.6 | 0.00 | 0.02 | 0.02 | 83 | 1009.3 |
| 20260502203011 | 50 | 165 | 0.0 | 2.6 | 0.00 | 0.02 | 0.02 | 83 | 1009.1 |
| 20260502201509 | 50 | 165 | 0.0 | 4.3 | 0.00 | 0.02 | 0.02 | 84 | 1009.1 |